Weather History for Mt. Pocono, PA

Change the Weather History Date:

Friday, February 22, 2013

  Actual Average Record
Temperature  
Mean Temperature 21 °F 27 °F  
Max Temperature 29 °F 36 °F 56 °F (1974)
Min Temperature 13 °F 19 °F -14 °F (1907)
Degree Days  
Heating Degree Days 44 38  
Month to date heating degree days 927 871  
Since 1 July heating degree days 4627 4902  
Cooling Degree Days 0 0  
Month to date cooling degree days 0 0  
Year to date cooling degree days 0 0  
Moisture  
Dew Point 17 °F    
Average Humidity 80    
Maximum Humidity 92    
Minimum Humidity 68    
Precipitation  
Precipitation T in 0.09 in 1.37 in (1951)
Month to date precipitation 0.61 1.83  
Year to date precipitation 2.66 4.68  
Sea Level Pressure  
Sea Level Pressure 30.27 in    
Wind  
Wind Speed 8 mph (SE)    
Max Wind Speed 15 mph    
Max Gust Speed 20 mph    
Visibility 9 miles    
Events Snow    
T = Trace of Precipitation, MM = Missing Value Source: NWS Daily Summary

Daily Weather History Graph

Daily Weather History Graph

Search for Another Location

Airport:

Trip Planner

Search our weather history database for the weather conditions in past years. The results will help you decide how hot, cold, wet, or windy it might be!

Date:

Astronomy

Feb. 22, 2013 Rise Set
Actual Time 6:46 AM EST 5:44 PM EST
Civil Twilight 6:18 AM EST 6:12 PM EST
Nautical Twilight 5:46 AM EST 6:44 PM EST
Astronomical Twilight 5:14 AM EST 7:16 PM EST
Moon 2:52 PM EST (2/22) 4:30 AM EST (2/22)
Length of Visible Light 11h 54m
Length of Day
10h 58m
Waxing Gibbous, 90% of the Moon is Illuminated
Feb 22
Waxing Gibbous
Feb 25
Full
Mar 4
Last Quarter
Mar 11
New
Mar 19
First Quarter

Hourly Weather History & Observations

Time (EST) Temp. Windchill Dew Point Humidity Pressure Visibility Wind Dir Wind Speed Gust Speed Precip Events Conditions
12:29 AM 14.0 °F 3.9 °F 10.4 °F 86% 30.21 in 10.0 mi NW 6.9 mph - N/A   Partly Cloudy
12:53 AM 15.1 °F 4.2 °F 10.9 °F 84% 30.32 in 10.0 mi West 8.1 mph - N/A   Partly Cloudy
1:53 AM 15.1 °F 6.4 °F 10.9 °F 84% 30.31 in 10.0 mi NW 5.8 mph - N/A   Partly Cloudy
2:53 AM 14.0 °F 3.9 °F 10.0 °F 84% 30.33 in 10.0 mi NW 6.9 mph - N/A   Clear
3:53 AM 12.9 °F 5.2 °F 9.0 °F 84% 30.33 in 9.0 mi NW 4.6 mph - N/A   Clear
4:53 AM 12.9 °F 5.2 °F 10.0 °F 88% 30.32 in 10.0 mi NNW 4.6 mph - N/A   Clear
5:53 AM 12.9 °F 5.2 °F 9.0 °F 84% 30.35 in 10.0 mi NW 4.6 mph - N/A   Clear
6:53 AM 15.1 °F - 10.9 °F 84% 30.35 in 10.0 mi Calm Calm - N/A   Clear
7:53 AM 16.0 °F 10.4 °F 10.9 °F 81% 30.37 in 10.0 mi East 3.5 mph - N/A   Clear
8:53 AM 23.0 °F 13.1 °F 16.0 °F 74% 30.36 in 10.0 mi East 9.2 mph - N/A   Clear
9:53 AM 24.1 °F 14.4 °F 16.0 °F 71% 30.35 in 10.0 mi ESE 9.2 mph - N/A   Clear
10:53 AM 25.0 °F 16.3 °F 17.1 °F 72% 30.36 in 10.0 mi ESE 8.1 mph - N/A   Clear
12:53 PM 27.0 °F 16.1 °F 18.0 °F 69% 30.31 in 10.0 mi ESE 12.7 mph - N/A   Partly Cloudy
1:53 PM 28.0 °F 17.0 °F 19.0 °F 69% 30.28 in 10.0 mi SE 13.8 mph - N/A   Overcast
2:53 PM 28.0 °F 19.3 °F 19.0 °F 69% 30.28 in 10.0 mi SE 9.2 mph - N/A   Overcast
3:53 PM 28.9 °F 18.6 °F 19.9 °F 69% 30.28 in 10.0 mi SE 12.7 mph - 0.00 in   Overcast
4:53 PM 28.0 °F 18.1 °F 19.9 °F 72% 30.28 in 10.0 mi SE 11.5 mph - 0.00 in   Overcast
5:53 PM 28.0 °F 20.0 °F 19.9 °F 72% 30.28 in 10.0 mi SE 8.1 mph - N/A   Overcast
6:53 PM 28.0 °F 19.3 °F 19.9 °F 72% 30.28 in 10.0 mi SE 9.2 mph - N/A   Overcast
7:53 PM 27.0 °F 17.3 °F 19.9 °F 75% 30.28 in 10.0 mi SSE 10.4 mph - N/A   Overcast
8:49 PM 26.6 °F 16.8 °F 21.2 °F 80% 30.18 in 2.5 mi SE 10.4 mph - 0.00 in Snow Light Snow
8:53 PM 27.0 °F 18.0 °F 21.0 °F 78% 30.26 in 2.0 mi SE 9.2 mph - 0.00 in Snow Light Snow
8:57 PM 26.6 °F 17.5 °F 21.2 °F 80% 30.17 in 3.0 mi SE 9.2 mph - 0.00 in Snow Light Snow
9:10 PM 26.6 °F 16.2 °F 21.2 °F 80% 30.17 in 3.0 mi SSE 11.5 mph - 0.00 in Snow Light Snow
9:24 PM 26.6 °F 16.8 °F 21.2 °F 80% 30.17 in 9.0 mi SE 10.4 mph - 0.00 in   Overcast
9:53 PM 26.1 °F 16.8 °F 23.0 °F 88% 30.25 in 10.0 mi SE 9.2 mph - 0.00 in   Overcast
10:00 PM 26.6 °F 16.8 °F 23.0 °F 86% 30.17 in 10.0 mi SE 10.4 mph - N/A   Overcast
10:53 PM 27.0 °F 16.7 °F 23.0 °F 85% 30.24 in 10.0 mi SE 11.5 mph - N/A   Overcast
11:12 PM 26.6 °F 18.2 °F 24.8 °F 93% 30.15 in 10.0 mi SSE 8.1 mph - N/A   Overcast
11:53 PM 27.0 °F 18.0 °F 25.0 °F 92% 30.22 in 9.0 mi SSE 9.2 mph - N/A   Overcast